Tracking 28126 objects as of 1-Oct-2023
HD Live streaming from Space Station
objects crossing your sky now

COSMOS 839 DEB

Track COSMOS 839 DEB now!
10-day predictions


NORAD ID: 12543
Int'l Code: 1976-067BA
Perigee: 998.1 km
Apogee: 2,001.6 km
Inclination: 66.0 °
Period: 115.8 minutes
Semi major axis: 7870 km
RCS: 0.007 m2 (small)
Launch date: July 8, 1976
Source: Commonwealth of Independent States (former USSR) (CIS)
Launch site: PLESETSK MISSILE AND SPACE COMPLEX (PKMTR)

Note: This is SATELLITE DEBRIS
Your satellite tracking list
Your tracking list is empty




NASA's NSSDC Master Catalog

Two Line Element Set (TLE):
1 12543U 76067BA  23273.55556361  .00000299  00000-0  12384-2 0  9994
2 12543  66.0322 334.3440 0637435 135.4906 344.5201 12.43281295134940
Source of the keplerian elements: AFSPC